When you browse on this site, cookies collect data to enhance your experience and personalize the content and advertising you see.
Visit our Privacy Policy to learn more. By continuing to use the site, you agree to this use of cookies and data.
  • In Romania
  • List of Countries
  • For 7 days
  • Water Temperature
  • Satellite Maps
  • Weather Map
  • Weather Widgets
  • user-avatar
    Login

    Hourly Weather Rokochevo

    Today, 17 July, Wednesday

    Time Temperature Precipitation Wind Pressure Humidity
    00:00 +11°C° 0 mm 1 mps 737 mmHg 93%
    01:00 +10°C° 0 mm 1 mps 737 mmHg 93%
    02:00 +10°C° 0 mm 1 mps 737 mmHg 94%
    03:00 +11°C° 0 mm 1 mps 737 mmHg 93%
    04:00 +11°C° 0 mm 1 mps 737 mmHg 92%
    05:00 +11°C° 0 mm 1 mps 737 mmHg 92%
    06:00 +13°C° 0 mm 0 mps 737 mmHg 84%
    07:00 +15°C° 0 mm 0 mps 737 mmHg 76%
    08:00 +17°C° 0 mm 0 mps 737 mmHg 68%
    09:00 +18°C° 0 mm 0 mps 737 mmHg 63%
    10:00 +20°C° 0 mm 0 mps 737 mmHg 58%
    11:00 +21°C° 0 mm 0 mps 737 mmHg 53%
    12:00 +21°C° 0 mm 0 mps 737 mmHg 52%
    13:00 +21°C° 0 mm 0 mps 737 mmHg 52%
    14:00 +24°C° 0 mm 1 mps 736 mmHg 51%
    15:00 +23°C° 0.3 mm 1 mps 736 mmHg 59%
    16:00 +22°C° 0.3 mm 1 mps 736 mmHg 68%
    17:00 +21°C° 0.3 mm 1 mps 736 mmHg 76%
    18:00 +20°C° 0.4 mm 1 mps 736 mmHg 81%
    19:00 +18°C° 0.4 mm 1 mps 736 mmHg 86%
    20:00 +16°C° 0.4 mm 1 mps 736 mmHg 91%
    21:00 +15°C° 0.3 mm 1 mps 736 mmHg 93%
    22:00 +15°C° 0.3 mm 1 mps 736 mmHg 94%
    23:00 +14°C° 0.3 mm 1 mps 736 mmHg 96%

    Tomorrow, 18 July, Thursday

    Time Temperature Precipitation Wind Pressure Humidity
    00:00 +14°C° 0.1 mm 1 mps 736 mmHg 97%
    01:00 +13°C° 0.1 mm 1 mps 735 mmHg 97%
    02:00 +13°C° 0.1 mm 1 mps 735 mmHg 98%
    03:00 +13°C° 0.1 mm 1 mps 735 mmHg 98%
    04:00 +13°C° 0.1 mm 1 mps 735 mmHg 98%
    05:00 +14°C° 0.1 mm 1 mps 735 mmHg 98%
    06:00 +14°C° 0.4 mm 1 mps 735 mmHg 97%
    07:00 +15°C° 0.4 mm 2 mps 735 mmHg 96%
    08:00 +15°C° 0.4 mm 2 mps 734 mmHg 95%
    09:00 +15°C° 2.3 mm 2 mps 734 mmHg 96%
    10:00 +15°C° 2.3 mm 1 mps 734 mmHg 97%
    11:00 +15°C° 2.3 mm 1 mps 734 mmHg 98%
    12:00 +15°C° 1.4 mm 2 mps 734 mmHg 97%
    13:00 +16°C° 1.4 mm 2 mps 734 mmHg 96%
    14:00 +16°C° 1.4 mm 3 mps 734 mmHg 96%
    15:00 +16°C° 0.7 mm 3 mps 734 mmHg 95%
    16:00 +16°C° 0.7 mm 3 mps 734 mmHg 95%
    17:00 +16°C° 0.7 mm 3 mps 734 mmHg 95%
    18:00 +16°C° 0.3 mm 3 mps 734 mmHg 96%
    19:00 +14°C° 0.3 mm 3 mps 734 mmHg 97%
    20:00 +15°C° 0.3 mm 2 mps 734 mmHg 98%
    21:00 +15°C° 0.1 mm 2 mps 734 mmHg 98%
    22:00 +15°C° 0.1 mm 2 mps 734 mmHg 98%
    23:00 +15°C° 0.1 mm 2 mps 734 mmHg 99%

    Day after tomorrow, 19 July, Friday

    Time Temperature Precipitation Wind Pressure Humidity
    00:00 +15°C° 0.2 mm 2 mps 734 mmHg 99%
    01:00 +14°C° 0.2 mm 2 mps 734 mmHg 99%
    02:00 +14°C° 0.2 mm 1 mps 734 mmHg 99%
    03:00 +14°C° 0.5 mm 2 mps 734 mmHg 99%
    04:00 +14°C° 0.5 mm 2 mps 734 mmHg 99%
    05:00 +15°C° 0.5 mm 2 mps 734 mmHg 99%
    06:00 +15°C° 0.4 mm 2 mps 734 mmHg 98%
    07:00 +15°C° 0.4 mm 2 mps 735 mmHg 98%
    08:00 +15°C° 0.4 mm 2 mps 735 mmHg 98%
    09:00 +16°C° 1 mm 2 mps 735 mmHg 97%
    10:00 +17°C° 1 mm 3 mps 735 mmHg 95%
    11:00 +17°C° 1 mm 3 mps 736 mmHg 94%
    12:00 +17°C° 1.6 mm 3 mps 736 mmHg 93%
    13:00 +17°C° 1.6 mm 4 mps 736 mmHg 93%
    14:00 +17°C° 1.6 mm 4 mps 736 mmHg 93%
    15:00 +17°C° 0.7 mm 4 mps 736 mmHg 93%
    16:00 +17°C° 0.7 mm 4 mps 737 mmHg 92%
    17:00 +17°C° 0.7 mm 4 mps 737 mmHg 92%
    18:00 +15°C° 0.5 mm 4 mps 737 mmHg 93%
    19:00 +15°C° 0.5 mm 4 mps 737 mmHg 95%
    20:00 +16°C° 0.5 mm 3 mps 737 mmHg 96%
    21:00 +14°C° 0.5 mm 3 mps 738 mmHg 96%
    22:00 +14°C° 0.5 mm 3 mps 738 mmHg 97%
    23:00 +13°C° 0.5 mm 3 mps 738 mmHg 98%

    20 July, Saturday

    Time Temperature Precipitation Wind Pressure Humidity
    00:00 +13°C° 0 mm 3 mps 738 mmHg 98%
    01:00 +13°C° 0 mm 3 mps 739 mmHg 98%
    02:00 +13°C° 0 mm 3 mps 739 mmHg 98%
    03:00 +13°C° 0 mm 3 mps 739 mmHg 98%
    04:00 +13°C° 0 mm 3 mps 739 mmHg 98%
    05:00 +13°C° 0 mm 3 mps 740 mmHg 98%
    06:00 +13°C° 0.1 mm 3 mps 740 mmHg 98%
    07:00 +14°C° 0.1 mm 3 mps 740 mmHg 97%
    08:00 +14°C° 0.1 mm 3 mps 740 mmHg 97%
    09:00 +14°C° 0.2 mm 3 mps 741 mmHg 97%
    10:00 +14°C° 0.2 mm 3 mps 741 mmHg 97%
    11:00 +14°C° 0.2 mm 3 mps 741 mmHg 97%
    12:00 +16°C° 0.4 mm 3 mps 742 mmHg 93%
    13:00 +17°C° 0.4 mm 3 mps 742 mmHg 90%
    14:00 +18°C° 0.4 mm 3 mps 742 mmHg 86%
    15:00 +18°C° 0.6 mm 3 mps 742 mmHg 87%
    16:00 +19°C° 0.6 mm 2 mps 742 mmHg 87%
    17:00 +19°C° 0.6 mm 2 mps 743 mmHg 88%
    18:00 +18°C° 0.4 mm 2 mps 743 mmHg 91%
    19:00 +17°C° 0.4 mm 2 mps 743 mmHg 94%
    20:00 +16°C° 0.4 mm 1 mps 743 mmHg 97%
    21:00 +16°C° 0 mm 1 mps 743 mmHg 97%
    22:00 +15°C° 0 mm 1 mps 743 mmHg 98%
    23:00 +14°C° 0 mm 1 mps 744 mmHg 98%

    21 July, Sunday

    Time Temperature Precipitation Wind Pressure Humidity
    00:00 +14°C° 0 mm 1 mps 744 mmHg 98%
    01:00 +14°C° 0 mm 1 mps 744 mmHg 99%
    02:00 +13°C° 0 mm 1 mps 744 mmHg 99%
    03:00 +13°C° 0 mm 1 mps 744 mmHg 99%
    04:00 +14°C° 0 mm 1 mps 744 mmHg 99%
    05:00 +14°C° 0 mm 1 mps 745 mmHg 99%
    06:00 +15°C° 0 mm 1 mps 745 mmHg 97%
    07:00 +16°C° 0 mm 1 mps 745 mmHg 95%
    08:00 +16°C° 0 mm 1 mps 745 mmHg 93%
    09:00 +19°C° 0 mm 1 mps 745 mmHg 85%
    10:00 +21°C° 0 mm 1 mps 745 mmHg 77%
    11:00 +21°C° 0 mm 2 mps 745 mmHg 69%
    12:00 +23°C° 0.1 mm 2 mps 745 mmHg 68%
    13:00 +23°C° 0.1 mm 2 mps 745 mmHg 68%
    14:00 +23°C° 0.1 mm 2 mps 745 mmHg 67%
    15:00 +23°C° 0.3 mm 2 mps 745 mmHg 69%
    16:00 +23°C° 0.3 mm 2 mps 745 mmHg 72%
    17:00 +23°C° 0.3 mm 2 mps 745 mmHg 74%
    18:00 +20°C° 0.2 mm 2 mps 745 mmHg 80%
    19:00 +20°C° 0.2 mm 1 mps 745 mmHg 87%
    20:00 +18°C° 0.2 mm 1 mps 745 mmHg 94%
    21:00 +16°C° 0 mm 1 mps 745 mmHg 94%
    22:00 +15°C° 0 mm 1 mps 745 mmHg 95%
    23:00 +14°C° 0 mm 0 mps 745 mmHg 95%

    22 July, Monday

    Time Temperature Precipitation Wind Pressure Humidity
    00:00 +14°C° 0 mm 1 mps 746 mmHg 96%
    01:00 +14°C° 0 mm 1 mps 746 mmHg 96%
    02:00 +13°C° 0 mm 1 mps 746 mmHg 96%
    03:00 +13°C° 0 mm 1 mps 746 mmHg 96%
    04:00 +13°C° 0 mm 1 mps 746 mmHg 96%
    05:00 +13°C° 0 mm 1 mps 746 mmHg 96%
    06:00 +15°C° 0 mm 1 mps 746 mmHg 91%
    07:00 +16°C° 0 mm 1 mps 746 mmHg 85%
    08:00 +18°C° 0 mm 2 mps 746 mmHg 80%
    09:00 +19°C° 0 mm 2 mps 746 mmHg 73%
    10:00 +21°C° 0 mm 2 mps 747 mmHg 65%
    11:00 +23°C° 0 mm 2 mps 747 mmHg 57%
    12:00 +24°C° 0 mm 2 mps 747 mmHg 56%
    13:00 +24°C° 0 mm 3 mps 747 mmHg 54%
    14:00 +25°C° 0 mm 3 mps 746 mmHg 53%
    15:00 +25°C° 0 mm 3 mps 746 mmHg 54%
    16:00 +24°C° 0 mm 3 mps 746 mmHg 55%
    17:00 +24°C° 0 mm 3 mps 746 mmHg 57%
    18:00 +21°C° 0 mm 3 mps 746 mmHg 64%
    19:00 +19°C° 0 mm 2 mps 746 mmHg 72%
    20:00 +17°C° 0 mm 2 mps 746 mmHg 80%
    21:00 +16°C° 0 mm 2 mps 746 mmHg 82%
    22:00 +15°C° 0 mm 2 mps 747 mmHg 85%
    23:00 +14°C° 0 mm 2 mps 747 mmHg 87%
    Show more